Flag for Germany Weather past 2 weeks in Coburg, Bavaria, Germany

Now
68 °F

Overcast.


Feels Like: 68 °F
Forecast: 40 / 50 °F
Wind: 5 mph from Northwest

Location: Bamberg

Current Time: Apr 27, 2015 at 2:18:22 PM

Latest Report: Apr 27, 2015 at 1:00 PM


Visibility: 19 mi

Pressure: 29.56 "Hg

Humidity: 56%

Dew point: 51 °F

Location of CoburgLocation

Historic Weather in Coburg — Graph

°F

Coburg temperature yesterday

Maximum temperature yesterday: 70 °F (at 5:00 PM)
Minimum temperature yesterday: 49 °F (at 11:00 PM)
Average temperature yesterday: 58 °F

Past Weeks' High & Low Weather Summary

 TemperatureHumidityPressure
High76 °F (Apr 15, 6:00 PM)97% (Apr 13, 2:00 AM)30.49 "Hg (Apr 13, 2:00 AM)
Low26 °F (Apr 19, 6:00 AM)21% (Apr 21, 6:00 PM)29.56 "Hg (Apr 27, 1:00 PM)
Average50 °F63%30.12 "Hg
* Reported Apr 12 1:00 PM — Apr 27 1:00 PM, Coburg, Weather by CustomWeather, © 2015

Note: Actual official high and low records may vary slightly from our data, if they occured in-between our weather recording intervals... More about our weather records

Advertising

Coburg weather history for previous 24 hours

 ConditionsComfort  
Time TempWeatherWind HumidityBarometerVisibility
1:00 PM
Mon, Apr 27
68 °FOvercast.5 mph56%29.56 "Hg19 mi
12:00 PM68 °FOvercast.2 mph55%29.57 "Hg28 mi
11:00 AM66 °FOvercast.2 mph56%29.57 "Hg31 mi
10:00 AM64 °FOvercast.1 mph62%29.57 "Hg22 mi
9:00 AM58 °FOvercast.1 mph77%29.58 "Hg17 mi
8:00 AM55 °FOvercast.1 mph90%29.60 "Hg10 mi
7:00 AM53 °FLow clouds.1 mph93%29.60 "Hg11 mi
6:00 AM56 °FOvercast.2 mph78%29.60 "Hg22 mi
5:00 AM54 °FOvercast.2 mph84%29.59 "Hg19 mi
4:00 AM52 °FOvercast.1 mph91%29.62 "Hg18 mi
3:00 AM50 °FOvercast.1 mph94%29.63 "Hg11 mi
2:00 AM50 °FOvercast.2 mph92%29.65 "Hg17 mi
1:00 AM47 °FOvercast.1 mph94%29.68 "Hg15 mi
12:00 AM49 °FClear.1 mph93%29.68 "Hg19 mi
11:00 PM
Sun, Apr 26
49 °FOvercast.1 mph88%29.69 "Hg37 mi
10:00 PM52 °FOvercast.1 mph81%29.70 "Hg37 mi
9:00 PM56 °FOvercast.1 mph76%29.69 "Hg43 mi
8:00 PM62 °FOvercast.3 mph63%29.69 "Hg43 mi
7:00 PM65 °FOvercast.5 mph55%29.68 "Hg43 mi
6:00 PM68 °FOvercast.3 mph44%29.68 "Hg43 mi
5:00 PM70 °FOvercast.5 mph40%29.70 "Hg43 mi
4:00 PM69 °FOvercast.5 mph44%29.72 "Hg28 mi
3:00 PM68 °FOvercast.2 mph48%29.74 "Hg43 mi
2:00 PM68 °FOvercast.5 mph48%29.76 "Hg43 mi
Weather by CustomWeather, © 2015

See weather overviewHow to use our weather pages